Vineland Escarpment

*Note: All times are displayed in the local standard time of the station location.
**Rain - Equipment is designed to accurately record liquid precipitation; under conditions when precipitation is not in liquid form, the data displayed may not properly reflect rainfall values.

Date Max Temp
(°C)
Min Temp
(°C)
Avg Temp
(°C)
Rain (mm) Avg RH (%)
Fri, Feb 15, 2019 4.2 -4.6 0.7 5.2 74.0
Thu, Feb 14, 2019 2.3 -4.8 -1.2 2.0 73.2
Wed, Feb 13, 2019 0.8 -4.8 -2.9 0.8 79.2
Tue, Feb 12, 2019 2.2 -5.4 -2.5 17.2 88.5
Mon, Feb 11, 2019 -2.2 -4.9 -3.6 0.0 73.3
Sun, Feb 10, 2019 -3.2 -9.5 -6.1 0.0 71.5
Sat, Feb 09, 2019 -4.6 -10.3 -7.3 0.0 65.5
DateTime Avg Temp (°C) Rain (mm) RH (%)
Sat, Feb 16, 2019 17:00 -2.4 0.0 57.6
Sat, Feb 16, 2019 16:00 -2.2 0.0 58.2
Sat, Feb 16, 2019 15:00 -2.2 0.0 58.0
Sat, Feb 16, 2019 14:00 -2.5 0.0 59.2
Sat, Feb 16, 2019 13:00 -3.1 0.0 61.9
Sat, Feb 16, 2019 12:00 -3.5 0.0 62.3
Sat, Feb 16, 2019 11:00 -4.0 0.0 64.5
Sat, Feb 16, 2019 10:00 -4.0 0.0 64.4
Sat, Feb 16, 2019 09:00 -4.1 0.0 63.4
Sat, Feb 16, 2019 08:00 -4.7 0.0 66.1
Sat, Feb 16, 2019 07:00 -4.3 0.0 72.0
Sat, Feb 16, 2019 06:00 -3.5 0.0 69.5
Sat, Feb 16, 2019 05:00 -3.8 0.0 79.9
Sat, Feb 16, 2019 04:00 -4.0 0.0 79.3
Sat, Feb 16, 2019 03:00 -4.1 0.0 78.4
Sat, Feb 16, 2019 02:00 -4.0 0.0 75.6
Sat, Feb 16, 2019 01:00 -4.2 0.0 72.9
Sat, Feb 16, 2019 00:00 -4.3 0.0 71.2
Fri, Feb 15, 2019 23:00 -4.6 0.0 70.5
Fri, Feb 15, 2019 22:00 -4.3 0.0 69.7
Fri, Feb 15, 2019 21:00 -3.8 0.0 66.9
Fri, Feb 15, 2019 20:00 -2.8 0.0 69.2
Fri, Feb 15, 2019 19:00 -2.3 0.0 66.2
Fri, Feb 15, 2019 18:00 -1.7 0.0 66.8
Fri, Feb 15, 2019 17:00 -0.9 0.0 65.0
Fri, Feb 15, 2019 16:00 -0.5 0.0 66.0
Fri, Feb 15, 2019 15:00 -0.3 0.0 72.8
Fri, Feb 15, 2019 14:00 1.0 0.0 66.2
Fri, Feb 15, 2019 13:00 1.8 0.0 61.4
Fri, Feb 15, 2019 12:00 2.2 0.0 65.7
Fri, Feb 15, 2019 11:00 2.8 0.0 74.1
Fri, Feb 15, 2019 10:00 3.8 0.0 81.4
Fri, Feb 15, 2019 09:00 3.6 0.0 88.7
Fri, Feb 15, 2019 08:00 3.7 0.2 88.8
Fri, Feb 15, 2019 07:00 3.7 0.0 90.2
Fri, Feb 15, 2019 06:00 3.7 1.2 91.0
Fri, Feb 15, 2019 05:00 3.9 0.8 88.0
Fri, Feb 15, 2019 04:00 4.1 2.0 79.0
Fri, Feb 15, 2019 03:00 4.0 0.8 69.6
Fri, Feb 15, 2019 02:00 2.1 0.2 71.6
Fri, Feb 15, 2019 01:00 1.7 0.0 77.3
Fri, Feb 15, 2019 00:00 0.5 0.0 79.4
Thu, Feb 14, 2019 23:00 0.7 0.0 77.3
Thu, Feb 14, 2019 22:00 0.3 0.0 80.4
Thu, Feb 14, 2019 21:00 0.4 0.0 73.3
Thu, Feb 14, 2019 20:00 0.2 0.0 69.9
Thu, Feb 14, 2019 19:00 -0.3 0.0 72.0
Thu, Feb 14, 2019 18:00 0.4 0.0 73.2


asterix Register now to access more data! asterix